Weather Service Report


526 
ASUS42 KCAE 290510
RWRCAE
REGIONAL WEATHER ROUNDUP
NATIONAL WEATHER SERVICE COLUMBIA SC
100 AM EDT SAT APR 29 2017

NOTE: "FAIR" INDICATES FEW OR NO CLOUDS BELOW 12,000 FEET WITH NO
SIGNIFICANT WEATHER AND/OR OBSTRUCTIONS TO VISIBILITY.

NOT ALL STATIONS ARE QUALITY CONTROLLED BY THE NATIONAL 
WEATHER SERVICE. USE DATA WITH CAUTION...ESPECIALLY 
DEWPOINT OBSERVATIONS.

SCZ001>056-GAZ040-063>065-077-290600-
...UPSTATE SOUTH CAROLINA...
  
CITY           SKY/WX    TMP DP  RH WIND       PRES   REMARKS
ANDERSON       CLEAR     68  65  90 CALM      30.10F                  
LIBERTY        CLEAR     64  64  99 CALM      30.11S FOG              
SPARTANBURG    CLEAR     68  64  88 CALM      30.10S                  
CLEMSON        CLEAR     72  67  84 N3        30.12S                  
GREENVILLE       N/A     72  66  81 CALM      30.12S                  
GREENWOOD      CLEAR     68  65  90 CALM      30.12S                  
GREER          CLEAR     70  65  84 S6        30.10F                  
ROCK HILL      CLEAR     73  69  87 S6        30.12S                  
CHESTER        CLEAR     72  70  94 CALM      30.13S                  
LAURENS        CLEAR     72  68  88 CALM      30.11S                  


...CENTRAL SOUTH CAROLINA...
  
CITY           SKY/WX    TMP DP  RH WIND       PRES   REMARKS
COLUMBIA APT   CLEAR     77  70  79 S6        30.10S                  
COLUMBIA OWENS CLEAR     76  71  85 S6        30.12R                  
MCENTIRE ANGB  CLEAR     74  71  93 SE5       30.12S                  
ORANGEBURG     MOCLDY    74  71  91 S7        30.13S                  
SUMTER SHAW    CLEAR     74  70  88 S6        30.11R                  
NEWBERRY       CLEAR     72  70  94 CALM      30.14S                  
AIKEN          FAIR      72  68  88 S7        30.15S                  
BARNWELL       FAIR      77  73  88 S6        30.12S                  
MANNING        CLOUDY    73  70  88 S21       30.14S                  
CAMDEN         FAIR      75  72  88 CALM      30.13S                  
LANCASTER      CLEAR     73  73 100 S7        30.12S                  


...EASTERN AND COASTAL SOUTH CAROLINA...
  
CITY           SKY/WX    TMP DP  RH WIND       PRES   REMARKS
MYRTLE BEACH   CLOUDY    75  73  93 S10       30.17S                  
N MYRTLE BCH   MOCLDY    74  74 100 S9        30.16S                  
CONWAY         CLOUDY    73  72  94 S6        30.16R FOG              
MARION         CLOUDY    73  70  88 S7        30.14S                  
HARTSVILLE     FAIR      72  70  94 SE5       30.13R                  
FLORENCE       MOCLDY    74  73  97 S8        30.14R                  
DARLINGTON     CLEAR     74  72  93 S7        30.14R                  
CHARLESTON APT PTCLDY    74  71  91 S8        30.14S                  
MOUNT PLEASANT FAIR      75  73  94 S8        30.15S                  
WALTERBORO     PTCLDY    73  72  94 S7        30.14S                  
BEAUFORT       PTCLDY    77  75  93 S8        30.14S                  


...EASTERN GEORGIA...
  
CITY           SKY/WX    TMP DP  RH WIND       PRES   REMARKS
AUGUSTA BUSH F CLEAR     77  71  82 SE7       30.09S HAZE             
AUGUSTA DANIEL CLEAR     77  69  76 SE7       30.11S                  
THOMSON        CLEAR     69  67  93 SW5       30.15S                  
WASHINGTON     FAIR      70  70 100 CALM      30.11R                  
CLAXTON        FAIR      75  75 100 SE3       30.13R                  
SYLVANIA       PTCLDY   N/A N/A N/A S3        30.14R                  
STATESBORO     CLEAR     76  71  84 S8        30.12S                  
SAVANNAH       CLEAR     76  71  85 S12       30.13S                  


...SOUTHERN NORTH CAROLINA...
  
CITY           SKY/WX    TMP DP  RH WIND       PRES   REMARKS
CHARLOTTE      MOCLDY    73  67  81 S8        30.11S                  
MONROE         CLEAR     74  69  85 S3        30.11S                  
WADESBORO      CLEAR     75  71  85 S8        30.11S                  
ROCKINGHAM     MOCLDY    74  73  98 S7        30.13S                  
RUTHERFORDTON  CLEAR     65  65 100 CALM      30.12S                  
ASHEVILLE      CLEAR     69  62  78 SE7       30.16S                  

$$
  

Return to Home page


Western Regional Climate Center, wrcc@dri.edu